📊 Raw Sensor Data
Showing records 35051 to 35075 of 84,871 total
| ID | Distance (ft) | Battery V | Battery A | Int Temp (°F) | Int Humid (%) | Ext Temp (°F) | Solar V | RSSI | SNR | Time Stamp |
|---|---|---|---|---|---|---|---|---|---|---|
| 49833 | 15.3 | 3.80 | 0 | 105 | 42 | 97 | 5.20 | -71 | 8 | 08/21/2025 01:00 PM |
| 49832 | 15.3 | 3.78 | 0 | 103 | 42 | 98 | 5.20 | -71 | 7 | 08/21/2025 12:45 PM |
| 49831 | 15.3 | 3.78 | 0 | 102 | 42 | 97 | 5.20 | -70 | 8 | 08/21/2025 12:30 PM |
| 49830 | 15.3 | 3.78 | 0 | 101 | 42 | 95 | 5.10 | -70 | 8 | 08/21/2025 12:15 PM |
| 49829 | 15.4 | 3.80 | 0 | 99 | 41 | 96 | 5.10 | -71 | 8 | 08/21/2025 12:00 PM |
| 49828 | 15.3 | 3.78 | 0 | 97 | 41 | 97 | 5.10 | -71 | 7 | 08/21/2025 11:45 AM |
| 49827 | 15.3 | 3.78 | 0 | 95 | 41 | 93 | 5.10 | -71 | 7 | 08/21/2025 11:30 AM |
| 49826 | 15.3 | 3.78 | 0 | 93 | 42 | 94 | 5.10 | -70 | 8 | 08/21/2025 11:15 AM |
| 49825 | 15.3 | 3.78 | 0 | 91 | 42 | 92 | 5.10 | -71 | 8 | 08/21/2025 11:00 AM |
| 49824 | 15.3 | 3.78 | 0 | 89 | 42 | 91 | 5.10 | -70 | 8 | 08/21/2025 10:45 AM |
| 49823 | 15.4 | 4.06 | 0 | 88 | 42 | 91 | 5.10 | -70 | 8 | 08/21/2025 10:30 AM |
| 49822 | 15.4 | 4.03 | 0 | 86 | 42 | 90 | 5.10 | -71 | 7 | 08/21/2025 10:15 AM |
| 49821 | 15.4 | 3.99 | 0 | 84 | 42 | 89 | 5.10 | -70 | 7 | 08/21/2025 10:00 AM |
| 49820 | 15.3 | 3.91 | 0 | 81 | 42 | 87 | 5.10 | -71 | 8 | 08/21/2025 09:45 AM |
| 49819 | 15.3 | 3.96 | 0 | 80 | 42 | 84 | 5.10 | -70 | 8 | 08/21/2025 09:30 AM |
| 49818 | 15.3 | 3.82 | 0 | 77 | 42 | 84 | 5.10 | -70 | 8 | 08/21/2025 09:15 AM |
| 49817 | 15.6 | 3.79 | 0 | 76 | 42 | 78 | 5.10 | -69 | 8 | 08/21/2025 09:00 AM |
| 49816 | 15.3 | 3.79 | 0 | 75 | 42 | 77 | 5.10 | -70 | 8 | 08/21/2025 08:45 AM |
| 49815 | 15.2 | 3.79 | 0 | 73 | 42 | 74 | 5.10 | -70 | 8 | 08/21/2025 08:30 AM |
| 49814 | 15.2 | 3.79 | 0 | 71 | 41 | 73 | 5.10 | -70 | 7 | 08/21/2025 08:15 AM |
| 49813 | 15.2 | 3.79 | 0 | 69 | 41 | 76 | 5.10 | -71 | 8 | 08/21/2025 08:00 AM |
| 49812 | 15.2 | 3.79 | 0 | 66 | 41 | 76 | 5.10 | -70 | 7 | 08/21/2025 07:45 AM |
| 49811 | 15.1 | 3.84 | 0 | 63 | 42 | 71 | 4.50 | -70 | 8 | 08/21/2025 07:30 AM |
| 49810 | 15.1 | 3.88 | 0 | 60 | 43 | 69 | 4.50 | -70 | 9 | 08/21/2025 07:15 AM |
| 49809 | 15.0 | 3.68 | 0 | 57 | 44 | 62 | 4.50 | -71 | 9 | 08/21/2025 07:00 AM |